[[{"header":{"parameterUnit":"m.s-1","parameterCategory":1,"la1":30.2991,"la2":30.254,"lo1":-89.0895,"lo2":-89.0444,"dy":0.0017,"dx":0.0017,"nx":28,"ny":28,"refTime":"2025-08-18T21:00:00:Z","depth":0,"parameterNumber":2,"parameterNumberName":"U-component_of_WINDS"},"data":[0,0,0,0,0,0,0,0,0,0,0,0,0,0,0,0,0,0,0,0,0,0,0,0,0,0,0,0,0,0,0,0,0,0,0,0,0,0,0,0,0,0,0,0,0,0,0,0,0,0,0,0,0,0,0,0,0,0,-0.004,-0.0039,0,0.0016,0.0017,0.0018,0.0055,0.0055,0.0056,0.0056,0.0112,0.0113,0.0114,0,0,0,0,0,0,0,0,0,0,0,0,0,-0.0117,-0.0116,-0.004,-0.0039,-0.0039,0.0016,0.0017,0.0018,0.0055,0.0055,0.0056,0.0056,0.0111,0.0113,0.0114,0,0,0,0,0,0,0,0,0,0,0,0,0,-0.0075,-0.0116,-0.004,-0.0013,-0.001,0.0016,0.0017,0.0018,0.0055,0.0055,0.0056,0.0056,0.0111,0.0113,0.0114,0.0118,0,0,0.012,0.0121,0,0,0,0,0,0,0,0,-0.0077,-0.0072,-0.0018,-0.0015,-0.0012,0.0029,0.001,0.0051,0.0055,0.003,0.0056,0.0056,0.0084,0.0088,0.0098,0.0121,0.0123,0.012,0.0121,0.0122,0.0123,0,0,0,0,0,0,0,-0.008,-0.0074,-0.0018,-0.0017,-0.0013,-0.0005,0.0002,0.0018,0.0054,0.0032,0.0035,0.0041,0.0086,0.0096,0.0099,0.0124,0.012,0.0122,0.0123,0.0124,0.0152,0.0152,0,0,0,0,0,0,-0.0087,-0.0077,-0.002,-0.0016,-0.0044,-0.0004,0.0003,0.0016,0.0054,0.006,0.0041,0.0043,0.0092,0.0097,0.0101,0.0107,0.0122,0.0124,0.0125,0.0152,0.0152,0.0151,0,0,0,0,0,0,-0.0089,-0.0082,-0.0022,-0.0046,-0.0037,-0.0003,0.001,0.0016,0.0027,0.0061,0.0067,0.0045,0.0093,0.0099,0.0114,0.011,0.0125,0.0126,0.0153,0.0152,0.0152,0.012,0,0,0,0,0,0,-0.0091,-0.0083,-0.0081,-0.0046,-0.0036,-0.001,0.001,0.0017,0.003,0.0033,0.0066,0.0072,0.0094,0.0111,0.0115,0.0113,0.0128,0.0153,0.0152,0.0152,0.0121,0.0118,0.0116,0,0,0,0,0,-0.0094,-0.0093,-0.0081,-0.0074,-0.0033,-0.001,-0.0005,0.0021,0.003,0.0032,0.0053,0.0071,0.011,0.0112,0.0117,0.0115,0.0154,0.0153,0.0152,0.0123,0.0119,0.0116,0,0,0,0,0,0,-0.013,-0.0087,-0.0074,-0.0061,-0.0039,-0.0004,-0.0,0.0016,0.0035,0.0037,0.0068,0.0075,0.0086,0.0103,0.0104,0.012,0.0134,0.0134,0.0109,0.0106,0.0103,0.0099,0.0129,0,0,0,0,0,-0.0136,-0.012,-0.0085,-0.0076,-0.0066,-0.0035,-0.0025,-0.0007,0.0017,0.0026,0.0049,0.007,0.0087,0.0098,0.0115,0.0124,0.0131,0.0125,0.0122,0.012,0.012,0.0125,0.0122,0.0149,0.0149,0.0149,0,0,-0.0149,-0.0124,-0.0116,-0.0083,-0.0064,-0.005,-0.0028,-0.0013,-0.0003,0.0028,0.0043,0.0061,0.0086,0.0098,0.0104,0.0112,0.0114,0.0119,0.0117,0.0118,0.0124,0.0121,0.0119,0.0148,0.0148,0.0148,0,0,-0.0165,-0.0144,-0.0135,-0.0116,-0.0088,-0.0067,-0.0065,-0.0032,-0.002,-0.0003,0.002,0.0033,0.0062,0.0079,0.0091,0.0081,0.0098,0.0086,0.0071,0.0076,0.0074,0.0072,0.0067,0.0066,0.0086,0.0086,0.0086,0,-0.0185,-0.0161,-0.0133,-0.012,-0.0106,-0.0077,-0.0069,-0.0052,-0.002,-0.0012,-0.0004,0.0033,0.0053,0.0068,0.0066,0.0075,0.0078,0.0082,0.0072,0.007,0.0069,0.0065,0.0064,0.0084,0.0084,0.0085,0.0085,0,-0.0187,-0.0172,-0.0168,-0.0137,-0.0123,-0.0112,-0.0083,-0.0072,-0.0056,-0.0036,-0.0021,0.0004,0.0026,0.0032,0.0048,0.005,0.0053,0.0066,0.008,0.0064,0.0061,0.006,0.0082,0.0083,0.0083,0.0083,0,0,-0.0225,-0.0178,-0.0177,-0.0163,-0.0129,-0.0117,-0.0105,-0.0082,-0.0074,-0.0053,-0.0043,-0.0019,-0.0007,0.0007,0.0025,0.003,0.0019,0.0042,0.0043,0.0036,0.0021,0.0011,0.0009,0.003,0.003,0.003,0.0019,0,-0.0237,-0.0213,-0.0187,-0.0173,-0.0159,-0.0131,-0.0121,-0.01,-0.0081,-0.0067,-0.0047,-0.0031,-0.0016,-0.0007,-0.0002,0.0019,0.0016,0.0021,0.0039,0.0039,0.0031,0.0007,-0.0004,-0.0016,0.0018,0.0018,0.0018,0,-0.0247,-0.0227,-0.0211,-0.0179,-0.0172,-0.0163,-0.0141,-0.0127,-0.0103,-0.009,-0.0074,-0.0054,-0.0041,-0.0029,-0.0011,-0.0009,0.0,0.0012,0.0012,0.0014,0.0027,0.0008,-0.0019,-0.0021,0.0016,0.0016,0.0016,0,-0.0277,-0.0246,-0.0232,-0.0221,-0.0183,-0.0178,-0.0162,-0.0137,-0.0125,-0.0105,-0.0098,-0.0077,-0.0066,-0.0051,-0.0026,-0.0019,-0.0012,0.0003,-0.0001,-0.0002,-0.0002,-0.0002,-0.0028,0.0006,0.0006,0.0006,0.0006,0,-0.0294,-0.0286,-0.0245,-0.0237,-0.0228,-0.0198,-0.019,-0.0171,-0.015,-0.0138,-0.0113,-0.0103,-0.0071,-0.0057,-0.0038,-0.0027,-0.0022,-0.0012,-0.0007,-0.0014,-0.0016,-0.0009,-0.0008,0.0005,0.0005,0.0005,0.0005,0,-0.0326,-0.0299,-0.0282,-0.0248,-0.0239,-0.0233,-0.0204,-0.0196,-0.0176,-0.0162,-0.0157,-0.0126,-0.0108,-0.0082,-0.0057,-0.0044,-0.0037,-0.0028,-0.0045,-0.0042,-0.0048,-0.0049,-0.0071,-0.0073,-0.0038,-0.0038,-0.0038,0,-0.0339,-0.0332,-0.0296,-0.0286,-0.0271,-0.0256,-0.0243,-0.0214,-0.0202,-0.0174,-0.0169,-0.015,-0.0133,-0.0107,-0.0083,-0.0064,-0.0055,-0.0064,-0.0052,-0.006,-0.0056,-0.0058,-0.0057,-0.0068,-0.0068,-0.0068,-0.0069,0,-0.0365,-0.0352,-0.0334,-0.0312,-0.0298,-0.0279,-0.0259,-0.0253,-0.022,-0.0208,-0.019,-0.0176,-0.0151,-0.0132,-0.011,-0.0094,-0.0077,-0.0073,-0.0073,-0.0081,-0.0092,-0.0087,-0.0054,-0.0073,-0.0072,-0.0072,-0.0072,-0.0072,-0.0389,-0.0381,-0.0355,-0.0336,-0.0318,-0.03,-0.0291,-0.0269,-0.0253,-0.023,-0.0214,-0.0197,-0.0173,-0.0141,-0.0126,-0.0113,-0.0105,-0.0106,-0.0106,-0.0107,-0.011,-0.0093,-0.0109,-0.0109,-0.0109,-0.0108,-0.0108,0,-0.0414,-0.0396,-0.0379,-0.0352,-0.0337,-0.0321,-0.0298,-0.0287,-0.0272,-0.0251,-0.0235,-0.0214,-0.0196,-0.0171,-0.0151,-0.0145,-0.0137,-0.0141,-0.0142,-0.0139,-0.0117,-0.0119,-0.0149,-0.0149,-0.0148,-0.0148,-0.0148,-0.0148,-0.0426,-0.0413,-0.0397,-0.0374,-0.0356,-0.0339,-0.0327,-0.0311,-0.0294,-0.0272,-0.0256,-0.0239,-0.0217,-0.0195,-0.0178,-0.0171,-0.0165,-0.0173,-0.0163,-0.0144,-0.014,-0.0137,-0.0139,-0.0171,-0.0171,-0.0186,-0.0186,-0.0186]},{"header":{"parameterUnit":"m.s-1","parameterCategory":1,"la1":30.2991,"la2":30.254,"lo1":-89.0895,"lo2":-89.0444,"dy":0.0017,"dx":0.0017,"nx":28,"ny":28,"refTime":"2025-08-18T21:00:00:Z","depth":0,"parameterNumber":3,"parameterNumberName":"V-component_of_WINDS"},"data":[0,0,0,0,0,0,0,0,0,0,0,0,0,0,0,0,0,0,0,0,0,0,0,0,0,0,0,0,0,0,0,0,0,0,0,0,0,0,0,0,0,0,0,0,0,0,0,0,0,0,0,0,0,0,0,0,0,0,3.5065,3.5064,0,3.5026,3.5025,3.5025,3.4974,3.4973,3.4972,3.4971,3.4929,3.4929,3.4929,0,0,0,0,0,0,0,0,0,0,0,0,0,3.5095,3.5094,3.5065,3.5064,3.5064,3.5026,3.5025,3.5025,3.4974,3.4973,3.4972,3.4971,3.4929,3.4929,3.4929,0,0,0,0,0,0,0,0,0,0,0,0,0,3.5071,3.5094,3.5065,3.5034,3.5031,3.5026,3.5025,3.5025,3.4974,3.4973,3.4972,3.497,3.493,3.4929,3.4929,3.495,0,0,3.4927,3.4927,0,0,0,0,0,0,0,0,3.5073,3.507,3.5039,3.5036,3.5033,3.5003,3.502,3.5,3.4974,3.4996,3.4971,3.497,3.4955,3.4952,3.4947,3.4948,3.4946,3.4927,3.4927,3.4926,3.4926,0,0,0,0,0,0,0,3.5074,3.5072,3.5049,3.5039,3.5035,3.5022,3.5017,3.5016,3.4983,3.4994,3.499,3.4986,3.4953,3.4948,3.4946,3.4946,3.4927,3.4926,3.4926,3.4926,3.4962,3.4964,0,0,0,0,0,0,3.5081,3.5073,3.5051,3.5048,3.505,3.5022,3.5017,3.5014,3.4982,3.4977,3.4987,3.4984,3.495,3.4947,3.4944,3.4968,3.4926,3.4926,3.4926,3.4961,3.4963,3.4964,0,0,0,0,0,0,3.5082,3.5079,3.5052,3.506,3.5055,3.5023,3.502,3.5014,3.5009,3.4978,3.4971,3.4989,3.4948,3.4945,3.4949,3.4965,3.4926,3.4925,3.496,3.4962,3.4963,3.5014,0,0,0,0,0,0,3.5083,3.508,3.5088,3.506,3.5055,3.5058,3.5021,3.5014,3.5009,3.5004,3.4977,3.4972,3.4947,3.495,3.4949,3.4964,3.4925,3.4958,3.496,3.4963,3.5011,3.5018,3.5024,0,0,0,0,0,3.5084,3.5103,3.5089,3.5086,3.5065,3.5059,3.5056,3.5028,3.501,3.5018,3.4998,3.4972,3.4964,3.4951,3.4949,3.4964,3.4957,3.496,3.4963,3.5008,3.5016,3.5023,0,0,0,0,0,0,3.5133,3.5099,3.5082,3.5094,3.508,3.5051,3.506,3.5038,3.5028,3.5024,3.499,3.4984,3.4992,3.4979,3.4965,3.4984,3.4957,3.4959,3.4992,3.5,3.5006,3.5009,3.4924,0,0,0,0,0,3.5146,3.5145,3.5115,3.5128,3.5122,3.5092,3.5089,3.5069,3.5052,3.5046,3.5026,3.5011,3.5005,3.5002,3.4994,3.5009,3.5002,3.5019,3.5025,3.503,3.5033,3.5039,3.5046,3.4973,3.4973,3.4973,0,0,3.5171,3.5152,3.5153,3.5137,3.5124,3.5123,3.5087,3.5088,3.5087,3.5046,3.5049,3.5034,3.5015,3.5024,3.5027,3.5013,3.5051,3.5034,3.5038,3.5038,3.5043,3.505,3.5056,3.4975,3.4975,3.4975,0,0,3.5216,3.5202,3.5211,3.5199,3.518,3.516,3.5163,3.5137,3.5126,3.5128,3.5097,3.5096,3.5086,3.5073,3.5066,3.5108,3.5084,3.5106,3.5139,3.5145,3.5151,3.5156,3.5171,3.5176,3.5109,3.5109,3.5109,0,3.525,3.5248,3.5219,3.5222,3.5215,3.5179,3.5188,3.5177,3.5157,3.5153,3.5137,3.5125,3.5109,3.5115,3.5126,3.5121,3.5122,3.5109,3.5153,3.5157,3.5161,3.5175,3.5181,3.5112,3.5112,3.5111,3.5111,0,3.529,3.5289,3.5299,3.5281,3.5275,3.5281,3.5253,3.5251,3.5231,3.5213,3.5216,3.5197,3.5185,3.5185,3.5166,3.5188,3.518,3.5159,3.5131,3.5172,3.5184,3.5189,3.5116,3.5115,3.5114,3.5113,0,0,3.5365,3.5331,3.5335,3.5326,3.5303,3.5301,3.5306,3.5295,3.5294,3.5281,3.5283,3.5276,3.5257,3.5248,3.5228,3.5234,3.5268,3.5212,3.5211,3.5223,3.5291,3.5307,3.5313,3.5252,3.5253,3.5254,3.5293,0,3.5405,3.5411,3.5385,3.5397,3.5396,3.5362,3.5366,3.5352,3.5335,3.5331,3.5313,3.5308,3.5283,3.5278,3.5283,3.5263,3.5281,3.526,3.5253,3.5254,3.5259,3.532,3.5336,3.5374,3.5297,3.5298,3.5299,0,3.5453,3.5444,3.5456,3.5433,3.5431,3.5435,3.5423,3.542,3.5403,3.5391,3.5382,3.5358,3.536,3.5334,3.5336,3.5322,3.5318,3.5308,3.5309,3.5307,3.5278,3.5319,3.5385,3.5391,3.5306,3.5305,3.5305,0,3.5506,3.5497,3.5503,3.5496,3.5469,3.5472,3.5461,3.5443,3.5438,3.5428,3.5424,3.5414,3.5408,3.5401,3.5374,3.5358,3.538,3.5351,3.5369,3.5369,3.5374,3.5374,3.544,3.5373,3.5373,3.5372,3.5372,0,3.5554,3.5563,3.5526,3.553,3.5539,3.5509,3.5518,3.5504,3.5488,3.5488,3.5458,3.5458,3.5424,3.5421,3.54,3.5405,3.5403,3.5392,3.5387,3.5395,3.5396,3.5391,3.5388,3.5374,3.5374,3.5373,3.5373,0,3.5614,3.559,3.5594,3.5568,3.5562,3.557,3.5547,3.5549,3.5531,3.5532,3.553,3.5501,3.5496,3.5469,3.5457,3.5444,3.5455,3.5444,3.5461,3.5457,3.5476,3.5474,3.5541,3.5548,3.5476,3.5477,3.5478,0,3.5646,3.5652,3.5627,3.5625,3.5615,3.5613,3.5608,3.5579,3.5575,3.5557,3.5561,3.5554,3.5546,3.5539,3.5516,3.5507,3.5495,3.5519,3.5494,3.5502,3.5495,3.5495,3.5495,3.5525,3.5526,3.5526,3.5527,0,3.5705,3.5693,3.5687,3.5678,3.5673,3.5664,3.5653,3.5654,3.5621,3.5619,3.5613,3.5607,3.5595,3.5588,3.5575,3.5563,3.5539,3.5535,3.5539,3.5547,3.5556,3.5551,3.5476,3.5534,3.5533,3.5533,3.5532,3.5532,3.5751,3.5755,3.5739,3.5733,3.5723,3.5713,3.5714,3.5697,3.5692,3.568,3.5663,3.566,3.5643,3.5624,3.5613,3.561,3.5597,3.5602,3.5603,3.5604,3.5608,3.5557,3.5607,3.5607,3.5607,3.5607,3.5607,0,3.5809,3.5796,3.5792,3.5778,3.5774,3.5754,3.5741,3.5739,3.5736,3.5723,3.5716,3.571,3.5703,3.568,3.5671,3.5672,3.5661,3.5671,3.567,3.5667,3.5621,3.5619,3.568,3.568,3.568,3.568,3.568,3.568,3.5838,3.5843,3.5829,3.5829,3.5816,3.5814,3.5808,3.5799,3.5788,3.5783,3.5777,3.5763,3.5746,3.5735,3.5727,3.5721,3.5718,3.5731,3.5721,3.5678,3.5671,3.5664,3.5662,3.5731,3.5731,3.5768,3.5768,3.5768]}]]